カタログに戻る

TITAN 34B AGENA D DEB

運用中HEO
NORAD 25588·DEBRIS·🇺🇸 United States

打ち上げ Jul 31, 1983 から Vandenberg Space Force Base

Loading…

次のパス (今後24時間)

TLE

最新Source: Space-Track

元期: Sep 13, 2026, 12:05 UTC

1 25588U 83078E   26256.50396512 -.00000021  00000-0  29592-3 0  9990
2 25588  63.6039  29.5232 7271708 272.7512  14.0316  2.20161825 58889

AllMySatでTITAN 34B AGENA D DEBをリアルタイム追跡

Download on the App Store